Location: Unspecified
(0.0000°N, 0.0000°E)
Time: 08:53:05
(UTC+00:00)

GALILEO 8 (264) - Pass Details

Date: 17 December 2022
Orbit: 23209 x 23234 km, 56.9° (Epoch: 05 February)

Event Time Altitude Azimuth Distance (km) Brightness Sun altitude
Rises 17:43:57 0° 211° (SSW) 28,898 ? 2.8°
Reaches altitude 10° 18:18:44 10° 209° (SSW) 27,807 ? -5.2°
Maximum altitude 21:11:36 53° 267° (W) 24,232 ? -43.7°
Drops below altitude 10° 06:47:07 10° 144° (SE) 27,807 ? 11.6°
Sets 07:21:44 0° 147° (SSE) 28,898 ? 19.5°
